FW9540 Weather Reports


time (UTC)temp
F
wind
direction
speed
knots
gust
knots
rain 1hr
in
rain 24hr
in
rain mn
in
humidity
%
barometer
mb
20260507185550 57 305 0.0 0.0 0.00 0.00 0.00 87 1012.2
20260507185038 57 305 0.0 0.0 0.00 0.00 0.00 86 1012.0
20260507184535 57 305 0.0 0.0 0.00 0.00 0.00 86 1012.0
20260507183513 56 305 0.9 1.7 0.00 0.00 0.00 87 1011.9
20260507182952 56 305 0.0 1.7 0.00 0.00 0.00 87 1011.8
20260507182437 57 305 0.0 1.7 0.00 0.00 0.00 88 1011.8
20260507181939 57 305 0.0 0.0 0.00 0.00 0.00 89 1011.8
20260507181419 57 305 0.0 0.0 0.00 0.00 0.00 88 1011.7
20260507180335 57 305 0.0 0.0 0.00 0.00 0.00 87 1011.6
20260507175813 57 305 0.0 0.9 0.00 0.00 0.00 87 1011.5
20260507174748 57 305 0.0 0.0 0.00 0.00 0.00 86 1011.4
20260507174231 57 305 0.0 0.0 0.00 0.00 0.00 86 1011.5
20260507173732 57 305 0.0 0.0 0.00 0.00 0.00 86 1011.4
20260507173231 57 305 0.0 0.0 0.00 0.00 0.00 86 1011.4
20260507172730 57 305 0.0 0.0 0.00 0.00 0.00 86 1011.2
20260507172214 58 305 0.0 0.0 0.00 0.00 0.00 86 1011.1
20260507171649 58 305 0.0 0.0 0.00 0.00 0.00 85 1011.1
20260507170650 60 305 0.0 0.9 0.00 0.00 0.00 85 1011.0
20260507170146 60 305 0.0 0.9 0.00 0.00 0.00 84 1011.0
20260507165630 61 305 0.0 0.0 0.00 0.00 0.00 84 1011.0
20260507165112 61 305 0.0 0.0 0.00 0.00 0.00 85 1011.1
20260507164559 61 305 0.0 0.0 0.00 0.00 0.00 84 1011.0
20260507164100 61 305 0.0 0.9 0.00 0.00 0.00 83 1011.0
20260507163101 61 305 0.0 0.9 0.00 0.00 0.00 82 1011.1
20260507162556 61 305 0.0 0.9 0.00 0.00 0.00 82 1011.1
20260507162055 62 305 0.0 0.9 0.00 0.00 0.00 81 1011.0
20260507161554 62 300 0.0 1.7 0.00 0.00 0.00 81 1011.0
20260507161031 63 300 0.0 1.7 0.00 0.00 0.00 80 1011.0
20260507160001 64 296 0.0 1.7 0.00 0.00 0.00 78 1011.0
20260507155500 64 281 0.0 3.5 0.00 0.00 0.00 79 1011.0
20260507154936 64 296 0.0 1.7 0.00 0.00 0.00 78 1011.0
20260507154414 64 295 0.0 0.0 0.00 0.00 0.00 80 1011.0
20260507153913 64 295 0.0 2.6 0.00 0.00 0.00 79 1010.9
20260507153346 63 295 0.0 2.6 0.00 0.00 0.00 79 1010.9
20260507152831 63 190 0.0 0.0 0.00 0.00 0.00 79 1011.0
20260507152329 63 187 0.0 1.7 0.00 0.00 0.00 80 1011.0
20260507151828 63 187 0.0 3.5 0.00 0.00 0.00 81 1010.9
20260507151328 63 186 0.0 3.5 0.00 0.00 0.00 81 1010.8
20260507145730 61 29 0.0 3.5 0.00 0.00 0.00 84 1010.8
20260507145213 61 29 0.0 3.5 0.00 0.00 0.00 84 1010.8
20260507144712 60 29 0.9 4.3 0.00 0.00 0.00 86 1010.8
20260507144149 60 33 0.9 4.3 0.00 0.00 0.00 86 1010.9
20260507143632 59 38 0.9 4.3 0.00 0.00 0.00 87 1010.8
20260507143056 59 30 0.9 5.2 0.00 0.00 0.00 87 1010.8
20260507142536 59 28 0.9 5.2 0.00 0.00 0.00 88 1010.8
20260507141452 59 31 0.0 7.0 0.00 0.00 0.00 88 1010.9
20260507140430 59 196 0.9 6.1 0.00 0.00 0.00 88 1010.9
20260507135929 58 196 1.7 6.1 0.00 0.00 0.00 88 1010.9
20260507135402 59 192 0.0 5.2 0.00 0.00 0.00 88 1011.0
20260507134839 58 187 0.0 1.7 0.00 0.00 0.00 88 1011.1
20260507134314 58 187 0.0 1.7 0.00 0.00 0.00 87 1011.2
20260507133747 58 186 0.0 2.6 0.00 0.00 0.00 87 1011.1
20260507133238 58 186 0.9 5.2 0.00 0.00 0.00 86 1011.1
20260507132738 58 183 1.7 5.2 0.00 0.00 0.00 85 1011.2
20260507132238 58 197 2.6 5.2 0.00 0.00 0.00 86 1011.2
20260507131736 58 192 2.6 7.0 0.00 0.00 0.00 87 1011.3
20260507131218 57 209 2.6 7.0 0.00 0.00 0.00 86 1011.3
20260507130713 57 207 2.6 6.1 0.00 0.00 0.00 87 1011.3
20260507130144 57 227 2.6 9.6 0.00 0.00 0.00 87 1011.3
20260507125626 57 209 1.7 9.6 0.00 0.00 0.00 87 1011.2
20260507125059 57 236 1.7 8.7 0.00 0.00 0.00 88 1011.1
20260507124538 57 261 5.2 13.0 0.00 0.00 0.00 86 1011.2
20260507123012 59 201 0.9 6.1 0.00 0.00 0.00 86 1011.1
20260507122444 60 213 0.9 3.5 0.00 0.00 0.00 85 1010.8
20260507121918 61 238 1.7 7.8 0.00 0.00 0.00 81 1010.5
20260507121350 62 267 2.6 7.8 0.00 0.00 0.00 78 1010.5
20260507120825 64 240 2.6 7.0 0.00 0.00 0.00 73 1010.4
20260507120322 65 200 2.6 7.0 0.00 0.00 0.00 69 1010.3
20260507115800 65 207 1.7 7.0 0.00 0.00 0.00 70 1010.3
20260507115258 66 188 1.7 7.0 0.00 0.00 0.00 70 1010.3
20260507114735 66 200 0.9 6.1 0.00 0.00 0.00 70 1010.0
20260507114207 66 194 0.0 6.1 0.00 0.00 0.00 70 1010.1
20260507113710 67 228 0.0 2.6 0.00 0.00 0.00 65 1010.3
20260507113140 67 228 0.9 3.5 0.00 0.00 0.00 66 1010.3
20260507112614 67 224 0.9 4.3 0.00 0.00 0.00 66 1010.1
20260507111546 68 218 0.9 4.3 0.00 0.00 0.00 64 1010.3
20260507111026 69 212 0.0 4.3 0.00 0.00 0.00 62 1010.1
20260507110521 68 89 0.9 5.2 0.00 0.00 0.00 63 1010.1
20260507110019 68 251 1.7 5.2 0.00 0.00 0.00 66 1010.3
20260507105449 68 265 1.7 5.2 0.00 0.00 0.00 66 1010.4
20260507104922 68 238 0.9 5.2 0.00 0.00 0.00 65 1010.5
20260507104416 68 194 0.0 4.3 0.00 0.00 0.00 64 1010.5
20260507103852 69 153 0.0 2.6 0.00 0.00 0.00 62 1010.6
20260507103325 69 114 0.0 0.9 0.00 0.00 0.00 66 1010.7
20260507102823 68 114 0.0 1.7 0.00 0.00 0.00 67 1010.8
20260507101752 66 87 0.0 2.6 0.00 0.00 0.00 70 1010.8
20260507101253 66 264 0.0 2.6 0.00 0.00 0.00 72 1010.8
20260507100749 65 105 0.0 2.6 0.00 0.00 0.00 72 1010.9
20260507100223 65 203 0.0 2.6 0.00 0.00 0.00 76 1011.0
20260507095657 64 222 0.0 2.6 0.00 0.00 0.00 74 1011.0
20260507094629 64 215 0.0 3.5 0.00 0.00 0.00 74 1011.0
20260507094102 63 196 0.0 2.6 0.00 0.00 0.00 75 1011.0
20260507093600 64 202 0.0 3.5 0.00 0.00 0.00 78 1011.1
20260507093058 64 195 0.0 3.5 0.00 0.00 0.00 79 1011.1
20260507092553 63 26 0.0 3.5 0.00 0.00 0.00 77 1011.2
20260507092048 63 34 0.0 3.5 0.00 0.00 0.00 76 1011.1
20260507091546 63 109 0.0 3.5 0.00 0.00 0.00 77 1011.2
20260507090539 63 107 0.0 2.6 0.00 0.00 0.00 78 1011.2
20260507090037 62 107 0.0 0.0 0.00 0.00 0.00 77 1011.1
20260507085515 62 127 0.0 2.6 0.00 0.00 0.00 77 1011.2
20260507085016 62 162 0.0 2.6 0.00 0.00 0.00 79 1011.3
20260507084512 61 162 0.0 2.6 0.00 0.00 0.00 79 1011.3
20260507084009 61 89 0.0 2.6 0.00 0.00 0.00 79 1011.3
20260507083503 60 59 0.0 3.5 0.00 0.00 0.00 79 1011.3
20260507083007 60 59 0.0 3.5 0.00 0.00 0.00 80 1011.3
20260507081912 60 44 0.9 3.5 0.00 0.00 0.00 80 1011.3
20260507081343 60 44 0.0 2.6 0.00 0.00 0.00 80 1011.3
20260507080840 60 44 0.0 2.6 0.00 0.00 0.00 81 1011.3
20260507080337 60 44 0.0 3.5 0.00 0.00 0.00 80 1011.4
20260507075812 60 44 0.9 3.5 0.00 0.00 0.00 82 1011.3
20260507075245 59 44 0.0 2.6 0.00 0.00 0.00 84 1011.3
20260507074717 59 44 0.0 0.9 0.00 0.00 0.00 83 1011.3
20260507074215 58 44 0.0 0.9 0.00 0.00 0.00 83 1011.2
20260507073712 58 44 0.0 2.6 0.00 0.00 0.00 84 1011.2
20260507073148 57 44 0.0 2.6 0.00 0.00 0.00 86 1011.2
20260507072620 57 44 0.0 0.9 0.00 0.00 0.00 87 1011.3
20260507072055 56 44 0.0 0.9 0.00 0.00 0.00 87 1011.3
20260507071529 56 44 0.0 0.9 0.00 0.00 0.00 87 1011.3
20260507071005 56 44 0.0 0.9 0.00 0.00 0.00 88 1011.2
20260507070439 56 44 0.0 0.9 0.00 0.00 0.00 88 1011.2
20260507065934 55 44 0.0 1.7 0.00 0.00 0.00 89 1011.2
20260507065405 55 44 0.0 1.7 0.00 0.00 0.00 89 1011.1
20260507064309 55 44 0.0 0.9 0.00 0.00 0.00 90 1011.2
20260507063810 55 44 0.0 0.9 0.00 0.00 0.00 90 1011.2
20260507063242 55 44 0.0 0.0 0.00 0.00 0.00 90 1011.2
20260507062713 55 44 0.0 0.0 0.00 0.00 0.00 91 1011.2
20260507062147 54 44 0.0 0.9 0.00 0.00 0.00 91 1011.2
20260507061646 54 44 0.0 0.9 0.00 0.00 0.00 91 1011.1
20260507061118 54 44 0.0 1.7 0.00 0.00 0.00 91 1011.1
20260507060615 54 44 0.0 1.7 0.00 0.00 0.00 91 1011.2
20260507060113 54 44 0.0 0.9 0.00 0.00 0.00 92 1011.1
20260507055611 54 44 0.0 1.7 0.00 0.00 0.00 92 1011.1
20260507055046 53 44 0.0 1.7 0.00 0.00 0.00 92 1011.0
20260507054042 53 44 0.0 0.9 0.00 0.00 0.00 93 1010.9
20260507053514 53 44 0.0 0.9 0.00 0.00 0.00 92 1010.8
20260507053011 53 44 0.0 0.9 0.00 0.00 0.00 92 1010.8
20260507052446 52 44 0.0 0.9 0.00 0.00 0.00 92 1010.7
20260507051937 52 44 0.0 0.9 0.00 0.00 0.00 92 1010.8
20260507051434 52 44 0.0 0.9 0.00 0.00 0.00 92 1010.7
20260507050921 52 44 0.0 0.9 0.00 0.00 0.00 92 1010.7
20260507050419 51 44 0.0 0.9 0.00 0.00 0.00 92 1010.6
20260507045351 51 44 0.0 0.0 0.00 0.00 0.00 92 1010.5
20260507044848 51 44 0.0 0.9 0.00 0.00 0.00 92 1010.5
20260507044322 51 44 0.0 0.9 0.00 0.00 0.00 93 1010.4
20260507042724 51 44 0.0 0.0 0.00 0.00 0.00 93 1010.1
20260507042201 51 44 0.0 0.9 0.00 0.00 0.00 93 1010.0
20260507041657 51 44 0.0 0.9 0.00 0.00 0.00 93 1010.0
20260507041151 52 44 0.0 0.9 0.00 0.00 0.00 93 1010.0
20260507040648 52 44 0.0 0.0 0.00 0.00 0.00 93 1010.0
20260507040123 52 44 0.0 1.7 0.00 0.00 0.00 93 1010.0
20260507035115 52 44 0.0 0.9 0.00 0.00 0.00 93 1009.9
20260507034110 51 44 0.0 0.9 0.00 0.00 0.00 93 1009.9
20260507033530 51 44 0.0 0.9 0.00 0.00 0.00 93 1009.8
20260507033004 51 44 0.0 0.9 0.00 0.00 0.00 93 1009.8
20260507032437 51 44 0.0 0.9 0.00 0.00 0.00 93 1009.8
20260507030316 52 44 0.0 0.0 0.00 0.00 0.00 93 1009.8
20260507025815 52 44 0.0 0.0 0.00 0.00 0.00 93 1009.9
20260507024744 52 44 0.0 0.0 0.00 0.00 0.00 93 1009.9
20260507024239 52 44 0.0 0.9 0.00 0.00 0.00 93 1009.8
20260507023736 52 44 0.0 0.9 0.00 0.00 0.00 93 1009.8
20260507023234 52 44 0.0 0.9 0.00 0.00 0.00 93 1009.9
20260507022731 52 44 0.9 2.6 0.00 0.00 0.00 93 1009.9
20260507021217 53 44 0.0 0.0 0.00 0.00 0.00 93 1009.9
20260507020711 53 44 0.0 0.0 0.00 0.00 0.00 93 1009.9
20260507020143 53 44 0.0 0.0 0.00 0.00 0.00 93 1009.8
20260507015642 53 44 0.0 0.0 0.00 0.00 0.00 93 1009.8
20260507015114 53 44 0.0 0.0 0.00 0.00 0.00 93 1009.7
20260507014550 53 44 0.0 0.0 0.00 0.00 0.00 93 1009.7
20260507013456 53 44 0.0 0.0 0.00 0.00 0.00 93 1009.7
20260507012956 53 44 0.0 0.0 0.00 0.00 0.00 93 1009.6
20260507012430 53 44 0.0 0.0 0.00 0.00 0.00 93 1009.6
20260507011901 53 44 0.0 0.0 0.00 0.00 0.00 93 1009.6
20260507010834 53 44 0.0 0.0 0.00 0.00 0.00 93 1009.6
20260507010326 53 44 0.0 0.0 0.00 0.00 0.00 93 1009.6
20260507005759 53 44 0.0 0.0 0.00 0.00 0.00 93 1009.6
20260507005257 53 44 0.0 0.0 0.00 0.00 0.00 93 1009.6
20260507004758 53 44 0.0 0.0 0.00 0.00 0.00 93 1009.6
20260507004254 53 44 0.9 3.5 0.00 0.00 0.00 93 1009.5
20260507003733 54 44 0.9 3.5 0.00 0.00 0.00 93 1009.5
20260507003233 54 44 0.0 2.6 0.00 0.00 0.00 93 1009.5
20260507002706 54 44 0.0 0.0 0.00 0.00 0.00 93 1009.5
20260507002204 54 44 0.0 0.0 0.00 0.00 0.00 93 1009.5
20260507001659 54 44 0.0 0.9 0.00 0.00 0.00 93 1009.6
20260507001157 54 44 0.0 0.9 0.00 0.00 0.00 93 1009.6
20260507000632 54 44 0.0 0.0 0.00 0.00 0.00 94 1009.6
20260506235053 54 44 0.0 0.0 0.00 0.00 0.00 94 1009.7
20260506234552 54 44 0.0 0.0 0.00 0.00 0.00 94 1009.6
20260506234038 54 44 0.0 0.0 0.00 0.00 0.00 93 1009.6
20260506233539 54 44 0.0 0.0 0.00 0.00 0.00 93 1009.6
20260506232509 54 44 0.0 0.0 0.00 0.00 0.00 93 1009.7
20260506232006 54 44 0.0 0.0 0.00 0.00 0.00 93 1009.7
20260506231438 54 44 0.0 0.9 0.00 0.00 0.00 93 1009.7
20260506230936 54 44 0.0 0.9 0.00 0.00 0.00 93 1009.7
20260506230437 54 44 0.0 3.5 0.00 0.00 0.00 93 1009.7
20260506225924 54 44 0.0 3.5 0.00 0.00 0.00 93 1009.7
20260506225402 54 44 0.0 3.5 0.00 0.00 0.00 93 1009.9
20260506224852 54 36 0.0 1.7 0.00 0.00 0.00 93 1009.8
20260506224348 54 36 0.0 1.7 0.00 0.00 0.00 93 1009.7
20260506223821 54 36 0.0 0.9 0.00 0.00 0.00 93 1009.7
20260506223320 54 36 0.0 0.9 0.00 0.00 0.00 94 1009.6
20260506222751 54 36 0.0 0.9 0.00 0.00 0.00 94 1009.6
20260506222248 54 36 0.0 0.9 0.00 0.00 0.00 94 1009.6
20260506221723 54 36 0.0 0.0 0.00 0.00 0.00 94 1009.6
20260506221220 54 36 0.0 0.0 0.00 0.00 0.00 94 1009.5
20260506220127 54 36 0.0 2.6 0.00 0.00 0.00 93 1009.6
20260506215607 53 36 0.0 2.6 0.00 0.00 0.00 93 1009.6
20260506215053 53 36 0.0 0.9 0.00 0.00 0.00 93 1009.5
20260506214548 53 36 0.0 0.0 0.00 0.00 0.00 93 1009.5
20260506214045 53 36 0.0 1.7 0.00 0.00 0.00 93 1009.5
20260506213035 53 36 0.0 0.0 0.00 0.00 0.00 93 1009.4
20260506212506 53 36 0.0 0.0 0.00 0.00 0.00 93 1009.4
20260506212005 53 36 0.0 0.0 0.00 0.00 0.00 93 1009.4
20260506211500 53 36 0.0 0.0 0.00 0.00 0.00 93 1009.4
20260506210959 53 36 0.0 0.9 0.00 0.00 0.00 93 1009.4
20260506210445 52 36 0.0 0.9 0.00 0.00 0.00 93 1009.4
20260506205953 52 36 0.0 0.0 0.00 0.00 0.00 93 1009.4
20260506205426 52 36 0.0 0.0 0.00 0.00 0.00 92 1009.4
20260506204854 52 36 0.0 0.0 0.00 0.00 0.00 92 1009.3
20260506203824 52 36 0.0 0.9 0.00 0.00 0.00 92 1009.3
20260506203323 52 36 0.0 0.9 0.00 0.00 0.00 92 1009.3
20260506202757 53 36 0.0 0.9 0.00 0.00 0.00 92 1009.2
20260506201306 53 36 0.0 0.0 0.00 0.00 0.00 92 1009.3
20260506200144 53 36 0.0 0.0 0.00 0.00 0.00 92 1009.1
20260506195222 54 36 0.0 0.0 0.00 0.00 0.00 92 1009.0
20260506194708 54 36 0.0 0.0 0.00 0.00 0.00 92 1008.9
20260506194136 54 36 0.0 0.0 0.00 0.00 0.00 92 1008.9
20260506193648 55 36 0.0 0.9 0.00 0.00 0.00 92 1008.9
20260506192608 55 36 0.0 0.0 0.00 0.00 0.00 92 1008.8
20260506191439 55 36 0.0 0.0 0.00 0.00 0.00 91 1008.9
20260506190913 55 36 0.0 0.0 0.00 0.00 0.00 91 1008.9
20260506190505 55 36 0.0 0.0 0.00 0.00 0.00 91 1008.8